Regional Weather Roundup
Issued by NWS Sioux Falls, SD

Home | Current Version | Previous Version | Graphics & Text | Print | Product List | Glossary On
Versions: 1 2 3 4 5 6 7 8 9 10 11 12 13 14 15 16 17 18 19 20 21 22 23 24 25 26 27 28 29 30 31 32 33 34 35 36 37 38 39 40 41 42 43 44 45 46 47 48 49 50
000
ASUS43 KFSD 240502
RWRFSD

WEATHER ROUNDUP FOR SE SOUTH DAKOTA/SW MINNESOTA/NW IOWA
NATIONAL WEATHER SERVICE SIOUX FALLS SD
1200 AM CDT THU JUL 24 2014

NOTE: "FAIR" INDICATES FEW OR NO CLOUDS BELOW 12,000 FEET WITH NO
SIGNIFICANT WEATHER AND OR OBSTRUCTIONS TO VISIBILITY.


SDZ038>040-050-052>070-240600-
SOUTHEAST SOUTH DAKOTA

CITY           SKY/WX    TMP DP  RH WIND       PRES   REMARKS
CHAMBERLAIN    CLEAR     67  59  74 SE7       30.12F
HURON          CLEAR     68  55  63 SE8       30.14S
MADISON        FAIR      59  57  94 SE7       30.19S
MITCHELL       CLEAR     67  59  75 SE8       30.15F
SIOUX FALLS    CLEAR     65  57  75 E7        30.18R
WINNER         FAIR      68  57  68 SE8       30.10F
YANKTON        CLEAR     66  61  82 CALM      30.16S
$$

MNZ071-072-080-081-089-090-097-098-240600-
SOUTHWEST MINNESOTA

CITY           SKY/WX    TMP DP  RH WIND       PRES   REMARKS
FAIRMONT       CLEAR     61  54  77 N7        30.18R
JACKSON        CLEAR     59  54  82 CALM      30.19S
LUVERNE        CLEAR     63  55  77 CALM      30.19S
MARSHALL       CLEAR     63  55  77 SW5       30.17S
MONTEVIDEO     CLEAR     64  57  77 CALM      30.18S
PIPESTONE      CLEAR     63  55  77 CALM      30.20S
REDWOOD FALLS  CLEAR     67  54  63 E5        30.17S
TRACY          CLEAR     65  56  73 CALM      30.19R
WINDOM         CLEAR     63  54  72 CALM      30.19S
WORTHINGTON    CLEAR     61  55  82 CALM      30.20S
$$

IAZ001>003-012>014-020>022-031-032-NEZ013-014-SDZ071-240600-
NORTHWEST IOWA

CITY           SKY/WX    TMP DP  RH WIND       PRES   REMARKS
CHEROKEE       CLEAR     65  61  86 E6        30.18S
DENISON        CLEAR     66  63  88 E5        30.16S
ESTHERVILLE    CLEAR     59  54  83 W5        30.18R
LE MARS        CLEAR     64  63  94 CALM      30.17S
ORANGE CITY    CLEAR     68  57  68 E5        30.19R
SHELDON        CLEAR     61  57  88 E3        30.18R
SIOUX CITY     CLEAR     65  62  90 CALM      30.16S
SPENCER        CLEAR     60  56  86 CALM      30.18S
STORM LAKE     CLEAR     64  61  88 E5        30.19S
$$

ABBREVIATIONS USED IN REMARKS
   TC - TEMPERATURE IN CELSIUS
  WCI - WIND CHILL INDEX
   HX - HEAT INDEX
  VSB - VISIBILITY




USA.gov is the U.S. government's official web portal to all federal, state and local government web resources and services.